User: anonymous   Login
Location: Unspecified
(0.0000°N, 0.0000°E)
Time: 22:27:59
(UTC+00:00)
Language:

PREFIRE-1 - Orbit

View from above orbital plane
View from above orbital plane
View from above satellite
View from above satellite

Ground track
Ground track

The orbit is defined by the following mean orbital elements,

1 59881U          26145.10340927 +.00000000 +00000-0 +14396-3 0 00004
2 59881  97.4113   1.6800 0010467 290.0053  70.0055 15.20891527    07
Epoch (UTC): 25 May 2026 02:28:54
Eccentricity: 0.0010467
inclination: 97.4113°
perigee height: 496 km
apogee height: 510 km
right ascension of ascending node: 1.6800°
argument of perigee: 290.0053°
revolutions per day: 15.20891527
mean anomaly at epoch: 70.0055°

The dashed part of the orbit path shows where the satellite is in the earth's shadow,  

DLR